Weather in Yaoundé

Cameroon     3°48′53″N   11°31′52″E
temp.,
°C
wind,
m/s
gust,
m/s
humid.,
%
clouds,
%
prec.,
mm/h
press.,
hPa
HPBL,
m
25 february, thu
thu2501:00+20w169878 0.0 1011241
04:00+19nw119999 0.0 101029
07:00+19w139798 0.0 1012143
10:00+29nw234997 0.0 10121002
13:00+35ne242198 0.0 10073013
16:00+32nw1327100 0.0 10051772
19:00+24wsw387493 0.0 1008525
22:00+21wsw31090100 0.0 1012555
26 february, fri
fri2601:00+22wsw3983100 0.0 1012726
04:00+21wsw2887100 0.1 1011668
07:00+21sw2892100 0.1 1013581
10:00+25wsw2466100 0.1 1013892
13:00+29wsw2250100 0.1 10091415
16:00+31wnw1241100 0.2 10071647
19:00+24wsw2771100 0.2 1008386
22:00+21w299271 0.0 1011348
27 february, sat
sat2701:00+20wsw399285 0.0 1010492
04:00+21w2888100 0.0 1010550
07:00+21sw1588100 0.0 1012391
10:00+28wsw235672 0.0 1013935
13:00+35wnw233143 0.0 10082267
16:00+28w3656100 0.1 1006581
19:00+24sw127281 0.1 100795
22:00+22w288857 0.0 1010310
28 february, sun
sun2801:00+20w299137 0.0 1009371
04:00+19wsw15998 0.0 1009182
07:00+19wsw149724 0.0 1010187
10:00+29wnw215419 0.0 1011807
13:00+38nne132816 0.0 10062274
16:00+26w2663100 0.0 1004258
19:00+25wsw257378 0.0 1006160
22:00+22w39930 0.0 1008388
1 march, mon
mon101:00+22w378643 0.0 1009584
04:00+22sw2685100 0.1 1009444
07:00+20wnw169759 0.1 1010278
10:00+29wnw225429 0.0 10111090
13:00+31wnw334825 0.8 10061353
16:00+28wsw375293 0.1 1003461
19:00+26sw146069 0.1 100597
22:00+22w39880 0.0 1009384